Weather History for Springfield, MO

Change the Weather History Date:

Thursday, September 22, 2011

  Actual Average Record
Temperature  
Mean Temperature 56 °F 66 °F  
Max Temperature 62 °F 78 °F 93 °F (1937)
Min Temperature 50 °F 55 °F 33 °F (1995)
Degree Days  
Heating Degree Days 9 3  
Month to date heating degree days 57 23  
Since 1 July heating degree days 57 25  
Cooling Degree Days 0 4  
Month to date cooling degree days 107 148  
Year to date cooling degree days 1785 1334  
Growing Degree Days 6 (Base 50)    
Moisture  
Dew Point 52 °F    
Average Humidity 84    
Maximum Humidity 100    
Minimum Humidity 67    
Precipitation  
Precipitation 0.53 in 0.15 in 2.80 in (1893)
Month to date precipitation 3.90 3.41  
Year to date precipitation 31.06 33.52  
Snow  
Snow 0.00 in - - ()
Month to date snowfall 0.0  
Since 1 July snowfall 0.0  
Since 1 September snowfall 0.0  
Snow Depth 0.00 in    
Sea Level Pressure  
Sea Level Pressure 30.17 in    
Wind  
Wind Speed 5 mph (SW)    
Max Wind Speed 10 mph    
Max Gust Speed 13 mph    
Visibility 8 miles    
Events Rain    
T = Trace of Precipitation, MM = Missing Value Source: NWS Daily Summary

Daily Weather History Graph

Daily Weather History Graph

Search for Another Location

Airport:

Trip Planner

Search our weather history database for the weather conditions in past years. The results will help you decide how hot, cold, wet, or windy it might be!

Date:

Astronomy

Sep. 22, 2011 Rise Set
Actual Time 7:01 AM CDT 7:10 PM CDT
Civil Twilight 6:35 AM CDT 7:36 PM CDT
Nautical Twilight 6:04 AM CDT 8:07 PM CDT
Astronomical Twilight 5:33 AM CDT 8:37 PM CDT
Moon 1:29 AM CDT (9/22) 3:57 PM CDT (9/22)
Length of Visible Light 13h 01m
Length of Day
12h 09m
Waning Crescent, 28% of the Moon is Illuminated
Sep 22
Waning Crescent
Sep 27
New
Oct 3
First Quarter
Oct 11
Full
Oct 19
Last Quarter

Hourly Weather History & Observations

Time (CDT) Temp. Dew Point Humidity Pressure Visibility Wind Dir Wind Speed Gust Speed Precip Events Conditions
12:52 AM 55.9 °F 50.0 °F 80% 30.14 in 10.0 mi North 8.1 mph - 0.00 in Rain Light Rain
1:52 AM 55.9 °F 51.1 °F 84% 30.13 in 10.0 mi NE 6.9 mph - 0.00 in   Overcast
2:52 AM 55.9 °F 51.1 °F 84% 30.12 in 10.0 mi NNE 5.8 mph - N/A   Overcast
3:52 AM 55.0 °F 52.0 °F 89% 30.14 in 10.0 mi NW 5.8 mph - 0.00 in Rain Light Rain
4:52 AM 54.0 °F 53.1 °F 97% 30.14 in 6.0 mi SW 5.8 mph - 0.06 in Rain Light Rain
5:52 AM 54.0 °F 53.1 °F 97% 30.14 in 8.0 mi Calm Calm - 0.04 in Rain Light Rain
6:52 AM 54.0 °F 53.1 °F 97% 30.19 in 9.0 mi West 3.5 mph - 0.03 in Rain Light Rain
7:52 AM 53.6 °F 53.6 °F 100% 30.20 in 4.0 mi NW 3.5 mph - N/A Rain Rain
8:52 AM 54.0 °F 54.0 °F 100% 30.18 in 4.0 mi NNW 6.9 mph - 0.06 in Rain Rain
9:18 AM 53.6 °F 53.6 °F 100% 30.22 in 3.0 mi NW 4.6 mph - 0.06 in Rain Rain
9:36 AM 53.6 °F 53.6 °F 100% 30.22 in 3.0 mi NW 5.8 mph - 0.09 in Rain Rain
9:52 AM 54.0 °F 54.0 °F 100% 30.21 in 4.0 mi WNW 3.5 mph - 0.13 in Rain Rain
9:59 AM 53.6 °F 53.6 °F 100% 30.22 in 4.0 mi WNW 3.5 mph - 0.01 in Rain Rain
10:52 AM 53.6 °F 53.6 °F 100% 30.23 in 6.0 mi Calm Calm - N/A Rain Light Rain
11:52 AM 55.0 °F 53.1 °F 93% 30.22 in 10.0 mi South 6.9 mph - 0.02 in Rain Light Rain
12:27 PM 55.4 °F 53.6 °F 94% 30.22 in 10.0 mi WSW 3.5 mph - 0.00 in   Overcast
12:52 PM 55.9 °F 52.0 °F 87% 30.19 in 10.0 mi SSE 3.5 mph - 0.00 in   Overcast
1:52 PM 57.2 °F 51.8 °F 82% 30.18 in 10.0 mi Variable 3.5 mph - N/A   Overcast
2:52 PM 60.1 °F 53.1 °F 78% 30.15 in 10.0 mi SSE 5.8 mph - N/A   Partly Cloudy
3:52 PM 60.1 °F 52.0 °F 75% 30.14 in 10.0 mi SSW 6.9 mph - N/A   Partly Cloudy
4:52 PM 61.0 °F 52.0 °F 72% 30.13 in 10.0 mi SSW 6.9 mph - N/A   Clear
5:52 PM 62.1 °F 51.1 °F 67% 30.12 in 10.0 mi South 4.6 mph - N/A   Clear
6:52 PM 59.0 °F 52.0 °F 78% 30.12 in 10.0 mi South 5.8 mph - N/A   Clear
7:52 PM 55.0 °F 52.0 °F 89% 30.13 in 10.0 mi South 5.8 mph - N/A   Clear
8:52 PM 53.6 °F 51.8 °F 94% 30.15 in 10.0 mi South 5.8 mph - N/A   Clear
9:52 PM 53.1 °F 51.1 °F 93% 30.16 in 10.0 mi South 5.8 mph - N/A   Clear
10:52 PM 51.8 °F 51.8 °F 100% 30.16 in 10.0 mi South 6.9 mph - N/A   Clear
11:52 PM 51.1 °F 50.0 °F 96% 30.15 in 10.0 mi South 4.6 mph - N/A   Clear